Sedalia, MO

12:15 PM CST on February 07, 2016 (GMT -0600)
Sedalia Memorial

Weather History for KDMO - December, 2012

Change the Weather History Date:

Monday, December 31, 2012

  Actual Average Record
Temperature  
Mean Temperature 33 °F 32 °F  
Max Temperature 39 °F 40 °F - ()
Min Temperature 26 °F 23 °F - ()
Degree Days  
Heating Degree Days 32 33  
Month to date heating degree days 787 936  
Since 1 July heating degree days 1664 1781  
Cooling Degree Days 0 0  
Month to date cooling degree days 0 0  
Year to date cooling degree days 2111 1490  
Moisture  
Dew Point 30 °F    
Average Humidity 68    
Maximum Humidity 96    
Minimum Humidity 40    
Precipitation  
Precipitation 0.31 in 0.08 in - ()
Month to date precipitation 0.81 2.32  
Year to date precipitation 30.23 41.11  
Sea Level Pressure  
Sea Level Pressure 30.12 in    
Wind  
Wind Speed 8 mph (North)    
Max Wind Speed 18 mph    
Max Gust Speed 25 mph    
Visibility 3 miles    
Events Fog , Snow    
T = Trace of Precipitation, MM = Missing Value Source: NWS Daily Summary

Daily Weather History Graph

Daily Weather History Graph

Search for Another Location

Airport or City:

Trip Planner

Search our weather history database for the weather conditions in past years. The results will help you decide how hot, cold, wet, or windy it might be!

Date:

Astronomy

Dec. 31, 2012 Rise Set
Actual Time 7:30 AM CST 5:01 PM CST
Civil Twilight 7:00 AM CST 5:31 PM CST
Nautical Twilight 6:27 AM CST 6:04 PM CST
Astronomical Twilight 5:55 AM CST 6:36 PM CST
Moon 8:30 PM CST (12/31) 9:14 AM CST (12/31)
Length of Visible Light 10h 30m
Length of Day
9h 30m
Waning Gibbous, 90% of the Moon is Illuminated
Dec 31
Waning Gibbous
Jan 4
Last Quarter
Jan 11
New
Jan 18
First Quarter
Jan 26
Full

Hourly Weather History & Observations

Time (CST) Temp. Windchill Dew Point Humidity Pressure Visibility Wind Dir Wind Speed Gust Speed Precip Events Conditions
12:53 AM 39.0 °F 30.3 °F 17.1 °F 41% 30.19 in 10.0 mi SSW 16.1 mph 24.2 mph N/A   Clear
1:53 AM 39.0 °F 30.3 °F 17.1 °F 41% 30.19 in 10.0 mi SW 16.1 mph - N/A   Partly Cloudy
2:53 AM 39.0 °F 31.8 °F 17.1 °F 41% 30.18 in 10.0 mi SW 11.5 mph 19.6 mph N/A   Overcast
3:53 AM 37.9 °F 31.5 °F 19.0 °F 47% 30.17 in 10.0 mi SW 9.2 mph - N/A   Overcast
4:53 AM 37.9 °F 31.5 °F 19.9 °F 48% 30.17 in 10.0 mi SW 9.2 mph - N/A   Overcast
6:05 AM 33.8 °F 25.8 °F 28.4 °F 81% 30.16 in 1.5 mi SW 10.4 mph 18.4 mph 0.00 in Snow Light Snow
6:12 AM 33.8 °F 25.8 °F 30.2 °F 87% 30.16 in 1.0 mi SW 10.4 mph - 0.00 in Snow Light Snow
6:19 AM 32.0 °F 24.8 °F 30.2 °F 93% 30.15 in 1.0 mi SW 8.1 mph - 0.01 in Snow Light Snow
6:29 AM 32.0 °F 24.8 °F 30.2 °F 93% 30.15 in 1.2 mi SW 8.1 mph - 0.01 in Snow Light Snow
6:53 AM 32.0 °F 26.4 °F 30.0 °F 92% 30.17 in 1.5 mi SSW 5.8 mph - 0.03 in Snow Light Snow
7:12 AM 32.0 °F 24.8 °F 30.2 °F 93% 30.15 in 1.2 mi SSW 8.1 mph - 0.01 in Snow Light Snow
7:28 AM 32.0 °F 25.6 °F 30.2 °F 93% 30.15 in 1.0 mi SSW 6.9 mph - 0.03 in Snow Light Snow
7:32 AM 32.0 °F 25.6 °F 30.2 °F 93% 30.15 in 0.8 mi SSW 6.9 mph - 0.04 in Snow Light Snow
7:53 AM 32.0 °F 26.4 °F 30.9 °F 96% 30.17 in 0.5 mi South 5.8 mph - 0.07 in Fog , Snow Snow
8:19 AM 33.8 °F 29.6 °F 30.2 °F 87% 30.14 in 0.5 mi South 4.6 mph - 0.03 in Fog , Snow Snow
8:49 AM 33.8 °F 27.7 °F 30.2 °F 87% 30.14 in 0.5 mi SSW 6.9 mph - 0.07 in Fog , Snow Snow
8:53 AM 33.1 °F 27.7 °F 30.9 °F 92% 30.17 in 0.5 mi SSW 5.8 mph - 0.07 in Fog , Snow Snow
9:04 AM 33.8 °F 27.7 °F 32.0 °F 93% 30.14 in 0.8 mi SSW 6.9 mph - 0.01 in Snow Light Snow
9:13 AM 33.8 °F 27.0 °F 32.0 °F 93% 30.14 in 1.0 mi SSW 8.1 mph - 0.02 in Snow Light Snow
9:27 AM 33.8 °F 27.7 °F 32.0 °F 93% 30.15 in 0.8 mi SSW 6.9 mph - 0.03 in Snow Light Snow
9:53 AM 34.0 °F 29.8 °F 32.0 °F 92% 30.17 in 0.8 mi SW 4.6 mph - 0.05 in Snow Light Snow
10:26 AM 33.8 °F 29.6 °F 32.0 °F 93% 30.16 in 1.0 mi SW 4.6 mph - 0.02 in Snow Light Snow
10:37 AM 33.8 °F 30.8 °F 32.0 °F 93% 30.15 in 0.8 mi SW 3.5 mph - 0.03 in Snow Light Snow
10:53 AM 34.0 °F 29.8 °F 32.0 °F 92% 30.18 in 1.0 mi SW 4.6 mph - 0.04 in Snow Light Snow
11:10 AM 33.8 °F 29.6 °F 32.0 °F 93% 30.16 in 0.8 mi WSW 4.6 mph - 0.00 in Snow Light Snow
11:24 AM 33.8 °F - 32.0 °F 93% 30.14 in 1.0 mi Calm Calm - 0.01 in Snow Light Snow
11:33 AM 33.8 °F 30.8 °F 32.0 °F 93% 30.14 in 1.5 mi WSW 3.5 mph - 0.01 in Snow Light Snow
11:53 AM 34.0 °F 29.8 °F 32.0 °F 92% 30.15 in 1.2 mi SW 4.6 mph - 0.01 in Snow Light Snow
12:08 PM 33.8 °F 30.8 °F 32.0 °F 93% 30.12 in 1.5 mi SW 3.5 mph - 0.01 in Snow Light Snow
12:25 PM 35.6 °F - 32.0 °F 87% 30.12 in 2.5 mi Calm Calm - 0.01 in Snow Light Snow
12:53 PM 35.1 °F - 32.0 °F 89% 30.12 in 2.5 mi Calm Calm - 0.01 in Snow Light Snow
1:00 PM 35.6 °F - 32.0 °F 87% 30.09 in 2.5 mi Calm Calm - 0.00 in Snow Light Snow
1:08 PM 35.6 °F - 32.0 °F 87% 30.09 in 3.0 mi Calm Calm - 0.00 in Snow Light Snow
1:22 PM 35.6 °F - 32.0 °F 87% 30.08 in 2.5 mi Calm Calm - 0.01 in Snow Light Snow
1:43 PM 35.6 °F - 32.0 °F 87% 30.08 in 3.0 mi Calm Calm - 0.01 in   Overcast
1:53 PM 35.1 °F - 32.0 °F 89% 30.10 in 4.0 mi Calm Calm - 0.01 in   Overcast
2:04 PM 35.6 °F 32.8 °F 32.0 °F 87% 30.08 in 4.0 mi North 3.5 mph - N/A   Overcast
2:13 PM 35.6 °F 31.7 °F 32.0 °F 87% 30.07 in 5.0 mi North 4.6 mph - N/A   Overcast
2:26 PM 35.6 °F 31.7 °F 32.0 °F 87% 30.06 in 4.0 mi NNE 4.6 mph - N/A   Overcast
2:37 PM 35.6 °F 31.7 °F 32.0 °F 87% 30.06 in 4.0 mi NNE 4.6 mph - N/A   Overcast
2:40 PM 35.6 °F 32.8 °F 32.0 °F 87% 30.07 in 3.0 mi NNE 3.5 mph - 0.00 in Snow Light Snow
2:48 PM 35.6 °F - 32.0 °F 87% 30.06 in 2.5 mi Calm Calm - 0.00 in Snow Light Snow
2:53 PM 35.1 °F 32.2 °F 32.0 °F 89% 30.08 in 2.5 mi NNE 3.5 mph - 0.00 in   Overcast
2:55 PM 35.6 °F 31.7 °F 32.0 °F 87% 30.06 in 3.0 mi NE 4.6 mph - N/A   Overcast
3:03 PM 33.8 °F 29.6 °F 32.0 °F 93% 30.06 in 3.0 mi NNE 4.6 mph - N/A   Overcast
3:39 PM 33.8 °F 30.8 °F 32.0 °F 93% 30.07 in 2.5 mi North 3.5 mph - N/A   Overcast
3:53 PM 33.1 °F 26.9 °F 30.9 °F 92% 30.10 in 2.0 mi NNE 6.9 mph - 0.00 in Snow Light Snow
4:04 PM 33.8 °F 28.6 °F 32.0 °F 93% 30.07 in 1.5 mi NNE 5.8 mph - 0.00 in Snow Light Snow
4:20 PM 33.8 °F 27.0 °F 32.0 °F 93% 30.07 in 1.0 mi NE 8.1 mph - 0.00 in Snow Light Snow
4:42 PM 33.8 °F 26.4 °F 30.2 °F 87% 30.06 in 1.2 mi NE 9.2 mph - 0.01 in Snow Light Snow
4:49 PM 33.8 °F 27.0 °F 30.2 °F 87% 30.06 in 2.0 mi NE 8.1 mph - 0.01 in Snow Light Snow
4:53 PM 33.1 °F 26.9 °F 30.9 °F 92% 30.09 in 2.0 mi NE 6.9 mph - 0.01 in Snow Light Snow
4:59 PM 33.8 °F 29.6 °F 30.2 °F 87% 30.07 in 1.8 mi NNE 4.6 mph - 0.00 in Snow Light Snow
5:03 PM 33.8 °F 27.7 °F 30.2 °F 87% 30.07 in 2.0 mi NE 6.9 mph - 0.00 in Snow Light Snow
5:12 PM 33.8 °F 28.6 °F 30.2 °F 87% 30.07 in 2.5 mi NE 5.8 mph - 0.00 in Snow Light Snow
5:25 PM 33.8 °F 27.7 °F 30.2 °F 87% 30.07 in 3.0 mi NE 6.9 mph - 0.00 in   Overcast
5:53 PM 33.1 °F 27.7 °F 30.9 °F 92% 30.10 in 2.0 mi NE 5.8 mph - 0.00 in Snow Light Snow
6:25 PM 33.8 °F 28.6 °F 30.2 °F 87% 30.08 in 1.2 mi NE 5.8 mph - 0.00 in Snow Light Snow
6:39 PM 33.8 °F 27.7 °F 30.2 °F 87% 30.08 in 1.8 mi NE 6.9 mph - 0.00 in Snow Light Snow
6:57 PM 33.8 °F 27.7 °F 30.2 °F 87% 30.08 in 1.5 mi NE 6.9 mph - 0.00 in Snow Light Snow
7:09 PM 33.8 °F 27.0 °F 30.2 °F 87% 30.09 in 2.0 mi NE 8.1 mph - 0.00 in Snow Light Snow
7:24 PM 33.8 °F 27.7 °F 30.2 °F 87% 30.08 in 1.5 mi NNE 6.9 mph - 0.00 in Snow Light Snow
7:53 PM 33.1 °F 26.1 °F 30.9 °F 92% 30.11 in 1.8 mi NNE 8.1 mph - 0.00 in Snow Light Snow
8:13 PM 33.8 °F 27.7 °F 30.2 °F 87% 30.09 in 2.0 mi NNE 6.9 mph - 0.00 in Snow Light Snow
8:37 PM 32.0 °F 23.6 °F 30.2 °F 93% 30.09 in 1.5 mi North 10.4 mph - 0.00 in Snow Light Snow
8:53 PM 30.0 °F 20.5 °F 28.0 °F 92% 30.13 in 1.8 mi North 11.5 mph - 0.00 in Snow Light Snow
9:39 PM 28.4 °F 18.0 °F 24.8 °F 86% 30.12 in 1.5 mi North 12.7 mph - 0.00 in Snow Light Snow
10:05 PM 26.6 °F 15.2 °F 24.8 °F 93% 30.13 in 2.5 mi North 13.8 mph - 0.00 in Snow Light Snow
10:23 PM 26.6 °F 15.7 °F 23.0 °F 86% 30.13 in 4.0 mi North 12.7 mph - 0.00 in   Overcast
10:53 PM 26.1 °F 15.0 °F 23.0 °F 88% 30.17 in 3.0 mi North 12.7 mph - 0.00 in Snow Light Snow
11:31 PM 26.6 °F 16.2 °F 21.2 °F 80% 30.14 in 5.0 mi North 11.5 mph - 0.00 in   Overcast
11:53 PM 26.1 °F 16.2 °F 21.9 °F 84% 30.18 in 7.0 mi NNE 10.4 mph - 0.00 in   Overcast